ANIK F1

Last updated on Fri Nov 29 2024 00:02:40 GMT+0000 (Coordinated Universal Time)

1 26624U 00076A 24333.52757684 -.00000031 00000+0 00000+0 0 9995 2 26624 3.7265 81.6832 0012018 174.3743 199.7009 0.98960552 37474
UTC large
Height (km)
Speed (km/s)
/
Latitude / Longitude
Inclination (degrees)
Orbital Period (minutes)
Azimuth
Elevation
Range (km)
Doppler Factor

Next 0 passes for location: London (51.5072 / 0.1276)

Sorry there are no passes over London.
ANIK F1